Location: Unspecified
(40.8819°N, 0.0000°E)
Time: 16:12:20
(UTC+00:00)

EO-79 - Pass Details

Date: 28 April 2024
Orbit: 562 x 575 km, 98.0° (Epoch: 27 May)

Event Time Altitude Azimuth Distance (km) Brightness Sun altitude
Rises 04:31:24 0° 350° (N) 2,797 ? -6.1°
Reaches altitude 10° 04:34:59 10° 316° (NW) 1,894 ? -5.5°
Maximum altitude 04:36:18 11° 298° (WNW) 1,802 ? -5.3°
Drops below altitude 10° 04:37:37 10° 279° (W) 1,890 ? -5.1°
Enters shadow 04:39:30 - 258° (WSW) 2,274 ? -4.8°
